Hourly Data Report for September 27, 2017

All times are specified in Local Standard Time (LST). Add 1 hour to adjust for Daylight Saving Time where and when it is observed.

BAKER LAKE A
NUNAVUT

64°17'56.000" N
96°04'40.000" W
18.60 m
2300503
71926
YBK

Download Data

Hourly Data (September 2017)
Hourly Data Report for September 27, 2017
Temp Definition
°C
Dew Point Temp Definition
°C
Rel Hum Definition
%
Wind Dir Definition
10's deg

Wind Spd Definition
km/h
Visibility Definition
km
Stn Press Definition
kPa
Hmdx Definition


Wind Chill Definition


Weather Definition


TIME
00:00 Legend Double Dagger 4.2 3.5 95 17 13 24.1 100.85     Mainly Clear
01:00 Legend Double Dagger 5.0 4.2 94 15 14 24.1 100.87     LegendNANA
02:00 Legend Double Dagger 5.4 4.5 93 16 21 24.1 100.86     LegendNANA
03:00 Legend Double Dagger 5.6 4.6 93 14 16 24.1 100.88     Cloudy
04:00 Legend Double Dagger 5.6 4.6 93 14 14 24.1 100.88     LegendNANA
05:00 Legend Double Dagger 5.7 4.7 93 14 15 24.1 100.92     LegendNANA
06:00 Legend Double Dagger 4.9 4.2 95 14 19 32.2 100.94     Cloudy
07:00 Legend Double Dagger 5.0 4.0 94 14 23 24.1 100.94     LegendNANA
08:00 Legend Double Dagger 4.1 3.4 95 14 24 32.2 100.97     LegendNANA
09:00 Legend Double Dagger 4.7 3.7 93 13 14 32.2 101.00     Cloudy
10:00 Legend Double Dagger 5.0 3.7 91 15 13 32.2 101.03     LegendNANA
11:00 Legend Double Dagger 5.6 4.0 89 12 11 32.2 101.07     LegendNANA
12:00 Legend Double Dagger 5.6 4.1 90 12 14 32.2 101.11     Cloudy
13:00 Legend Double Dagger 5.9 4.2 89 12 8 32.2 101.13     LegendNANA
14:00 Legend Double Dagger 6.0 4.2 88 12 6 32.2 101.18     LegendNANA
15:00 Legend Double Dagger 5.9 4.7 92 36 1 32.2 101.25     Drizzle
16:00 Legend Double Dagger 6.2 5.3 94 31 10 16.1 101.30     Drizzle
17:00 Legend Double Dagger 5.0 3.5 90 36 27 24.1 101.38     Drizzle
18:00 Legend Double Dagger 4.5 2.7 88 34 30 32.2 101.44     Mostly Cloudy
19:00 Legend Double Dagger 4.0 2.0 87 34 26 24.1 101.54     LegendNANA
20:00 Legend Double Dagger 2.9 1.1 87 34 31 24.1 101.62     LegendNANA
21:00 Legend Double Dagger 2.1 0.3 88 34 31 24.1 101.70     Mostly Cloudy
22:00 Legend Double Dagger 1.5 -0.4 88 34 32 24.1 101.77     LegendNANA
23:00 Legend Double Dagger 1.1 -1.4 84 35 22 24.1 101.83     Drizzle

Notes on Data Quality.

Legend

  • E = Estimated
  • M = Missing
  • NA = Not Available
  • ‡ = Partner data that is not subject to review by the National Climate Archives
Date modified: